Terug naar catalogus

SKYNET 2B

ActiefMilitairGEO
NORAD 7547·PAYLOAD·🇬🇧 United Kingdom

Gelanceerd Nov 23, 1974 vanaf Cape Canaveral Space Force Station

Loading…

TLE

VersSource: Space-Track

Epoch: Sep 14, 2026, 14:24 UTC

1 07547U 74094A   26257.60006111 -.00000357  00000-0  00000-0 0  9990
2 07547   3.3517 280.0010 0003212 244.8177 170.7620  1.00332994125660

Volg SKYNET 2B in realtime met AllMySat

Download on the App Store